GEFSGL_500_meanwind_000.txt.gz
Wind_Speed
32 32 32 32 35 36 37 40 39 36 35 36 34 36 38 41 43 44 45 44 40 40 42 43 44 47 47 49 54 62 66 68 62 59 56 46 38 40 49 59 66 67 70
32 33 34 34 35 34 36 38 36 35 36 34 33 35 36 36 38 40 41 41 37 35 37 38 39 42 42 42 42 49 58 65 66 60 63 62 46 38 39 42 54 61 63
34 35 35 35 34 33 35 36 35 35 35 32 32 33 34 34 35 35 36 35 34 31 33 35 35 36 37 36 37 39 46 52 62 69 64 64 59 46 39 39 41 48 54
33 33 35 35 33 34 35 36 36 36 34 32 31 32 33 33 32 31 34 34 31 28 27 30 32 31 32 34 35 35 39 43 50 65 73 66 64 62 50 47 42 41 41
34 35 35 36 35 36 36 37 38 36 34 34 34 34 33 33 32 31 32 32 32 30 26 24 27 29 31 34 36 34 36 39 42 50 65 73 69 69 68 62 54 51 45
35 35 36 36 36 37 38 38 39 37 36 36 36 35 35 34 33 34 32 32 33 32 31 28 25 24 26 30 35 37 38 40 42 46 54 63 67 72 72 72 71 66 59
36 38 36 36 37 38 39 40 41 39 37 38 37 36 36 35 35 35 33 34 34 33 30 28 28 27 27 27 28 31 35 39 42 46 50 55 60 67 73 76 75 73 73
38 39 38 38 38 39 41 42 43 40 37 38 37 37 36 36 36 37 35 35 36 36 33 31 30 31 32 33 34 34 35 37 41 44 47 51 57 60 65 73 76 77 77
37 39 39 39 39 41 43 44 43 39 37 37 37 37 37 37 38 39 38 39 40 40 39 39 39 38 39 39 40 40 43 45 46 47 49 52 54 58 60 67 72 76 79
37 39 40 40 41 42 44 45 42 38 37 36 38 37 37 37 39 40 41 42 43 43 43 44 45 47 47 48 50 51 51 51 54 56 57 58 60 61 62 64 67 70 72
38 40 41 43 43 43 44 43 40 39 37 37 38 38 37 39 40 42 44 45 46 46 46 47 49 51 53 55 58 60 60 57 57 59 62 66 68 69 67 65 65 65 65
38 42 45 45 44 44 42 41 39 39 38 38 39 39 39 40 42 44 47 48 50 51 52 52 53 54 57 60 63 65 64 60 61 64 67 70 73 75 74 72 68 67 64
42 45 46 44 42 41 40 40 39 38 39 38 38 39 41 44 46 48 50 51 53 55 56 57 59 60 63 65 67 67 67 66 67 68 69 69 72 75 76 76 75 71 67
44 45 43 41 39 38 39 38 38 38 39 39 39 41 44 47 49 51 53 55 56 58 60 62 64 67 69 69 68 67 65 65 65 62 61 61 64 70 72 72 75 76 72
44 42 41 38 37 37 38 38 39 39 40 40 42 44 48 50 52 54 56 57 60 62 64 66 69 71 69 66 63 60 58 58 59 57 54 53 54 59 63 65 67 73 74
41 40 38 36 36 37 38 38 40 42 42 44 47 50 52 54 56 57 59 61 65 67 69 72 72 69 65 60 57 55 55 53 52 51 48 45 46 49 54 58 60 63 68
39 37 35 36 36 37 38 40 43 44 46 48 51 54 56 58 59 61 64 67 71 73 74 73 70 65 60 56 55 53 52 49 47 45 42 39 39 42 46 52 56 57 59
36 35 35 36 37 38 40 43 45 48 51 53 55 57 59 62 65 68 71 73 76 76 76 73 67 62 58 55 53 51 48 44 41 38 36 34 34 37 39 46 52 53 53
34 34 34 36 38 41 44 47 49 51 53 55 58 61 64 67 71 75 77 78 77 75 72 68 63 59 57 54 51 47 43 39 35 32 31 30 31 34 35 41 46 49 50
34 36 38 40 43 46 49 51 52 54 56 58 62 65 69 73 76 78 78 78 76 72 68 64 60 57 55 51 47 42 38 34 30 28 28 28 28 30 33 39 43 46 48
37 40 43 45 48 50 52 54 56 58 61 65 69 73 76 78 78 78 77 75 72 67 63 60 57 53 49 45 41 37 33 30 27 25 26 27 27 28 30 36 42 44 45
41 44 47 49 51 53 56 58 62 65 69 73 76 78 80 81 81 79 76 72 69 64 60 55 50 46 42 39 35 33 30 28 25 24 24 26 27 28 29 33 39 42 43
46 48 51 53 56 59 62 66 70 73 76 79 81 81 81 80 78 75 71 67 62 56 51 45 40 36 34 33 31 29 27 26 25 25 23 23 25 27 27 30 34 37 40
50 52 55 59 62 66 70 73 76 79 80 82 82 81 79 77 73 68 61 55 49 44 38 35 31 29 29 28 28 27 26 26 25 26 24 21 22 23 23 25 28 31 33
55 58 62 66 70 73 76 78 80 81 82 81 79 75 71 66 59 53 47 43 38 34 31 29 27 25 24 24 25 25 26 26 26 28 27 22 21 21 21 21 21 24 27
62 66 69 73 75 78 79 81 81 80 77 72 66 61 56 51 46 43 40 38 35 32 30 28 27 24 22 21 22 24 26 26 26 28 29 25 23 21 21 21 21 21 24

GEFSGL_500_meanwind_006.txt.gz
Wind_Speed
54 54 53 53 53 51 46 41 38 37 37 38 40 40 40 40 40 40 41 42 42 42 43 43 42 42 42 42 43 43 44 43 42 39 40 43 47 51 57 60 62 63 64
53 51 49 51 54 52 48 42 39 38 38 39 40 40 39 38 39 39 40 41 41 42 42 42 41 41 40 39 39 38 38 37 37 37 37 38 41 44 49 54 58 61 61
48 47 45 48 49 47 43 40 39 39 39 39 40 40 41 40 39 39 39 40 40 40 41 41 41 40 38 36 35 34 33 32 31 31 31 33 35 38 41 46 51 56 58
42 40 42 44 43 41 38 36 37 38 38 38 39 41 43 43 42 40 40 39 39 41 41 41 41 40 37 34 34 33 31 30 28 26 25 28 31 34 37 40 44 50 54
36 38 40 39 36 35 36 36 36 36 36 37 40 43 44 44 43 41 40 41 41 43 43 42 41 40 36 34 33 32 31 30 28 25 23 24 27 31 34 36 40 45 51
36 36 34 30 29 32 34 36 37 36 36 38 40 42 44 45 44 43 42 42 43 44 45 43 41 40 38 35 33 32 32 32 30 27 24 22 23 27 30 32 37 43 50
34 31 28 28 28 30 32 34 35 36 37 39 41 42 44 45 45 45 44 43 43 45 45 44 42 41 40 38 34 33 33 34 34 31 28 26 24 24 25 27 31 38 46
32 30 27 24 25 27 29 32 34 35 37 38 40 42 44 46 47 47 45 44 44 45 46 45 44 43 43 40 37 35 35 36 36 36 34 30 28 27 27 26 25 28 36
31 29 26 25 27 29 31 34 36 38 39 39 41 43 45 47 49 48 46 43 43 45 46 45 44 45 44 42 40 38 37 38 38 38 38 37 34 32 32 32 30 29 28
29 28 27 27 28 30 34 37 39 41 42 41 42 44 46 48 49 49 46 43 43 44 45 45 45 45 46 45 44 42 41 40 40 41 41 41 40 38 38 37 35 34 32
29 28 27 27 29 32 37 40 41 42 42 43 45 46 47 48 48 48 46 44 43 43 45 46 46 46 47 47 48 47 46 45 44 44 43 43 43 43 43 43 42 40 37
28 28 27 28 30 33 37 39 41 43 45 46 47 48 47 47 46 45 44 44 43 43 44 45 46 47 48 49 51 52 51 51 50 48 47 46 46 46 47 47 48 47 46
27 27 27 30 32 35 37 39 40 41 43 44 46 46 46 45 44 44 44 44 44 44 45 46 47 48 49 51 53 54 55 55 54 53 52 52 51 51 51 52 52 53 54
28 29 30 33 35 37 40 42 43 43 42 42 43 43 44 44 44 44 45 45 45 45 46 47 49 51 52 54 55 57 59 59 58 58 58 58 58 57 58 59 59 59 59
31 32 34 35 38 40 43 44 44 43 41 41 41 42 43 44 45 45 45 46 47 47 48 50 52 54 56 57 59 60 61 62 62 64 64 64 64 65 65 66 67 67 66
34 35 36 38 41 43 44 44 44 42 41 40 40 41 43 44 46 47 48 49 50 51 53 55 56 58 59 61 62 63 65 66 68 70 71 72 72 73 73 73 74 74 72
34 37 39 41 43 44 44 44 44 43 42 42 42 43 45 47 49 50 51 53 55 56 57 59 60 62 63 65 66 68 70 72 74 76 77 78 79 80 80 79 77 75 73
34 38 41 43 44 44 45 45 45 45 46 47 48 49 50 51 53 54 56 57 58 60 61 63 65 66 68 70 72 74 76 78 80 81 82 83 83 83 81 77 75 72 70
37 39 42 43 44 45 46 47 47 48 49 51 54 56 57 57 58 60 60 62 63 65 68 70 72 73 75 76 78 81 82 84 84 84 83 82 79 77 72 68 65 63 60
38 40 42 44 46 48 49 50 52 54 56 58 59 61 62 63 64 66 68 70 71 73 75 76 78 80 82 83 84 85 86 84 82 79 75 70 66 62 58 54 50 47 44
39 42 44 47 49 51 53 56 58 60 62 63 65 67 69 70 72 74 75 77 79 80 81 82 83 84 85 84 82 80 77 73 68 64 59 53 49 44 40 37 35 32 30
44 46 49 52 54 57 59 62 64 66 68 70 72 74 76 78 80 81 82 83 84 85 85 84 82 79 76 72 67 63 58 54 49 44 39 35 31 28 26 26 25 23 23
50 53 55 58 61 64 66 69 71 74 75 77 79 80 81 82 83 83 83 83 81 79 76 73 68 63 58 53 47 43 39 35 31 27 24 22 20 20 20 20 19 19 20
58 60 63 66 69 71 73 75 77 78 79 80 80 80 79 78 77 74 72 70 67 64 61 57 52 47 43 38 33 29 26 23 21 18 17 16 16 17 17 17 17 17 18
66 68 70 72 74 75 76 76 76 75 74 73 72 70 68 67 65 64 62 60 58 55 52 49 45 41 36 32 27 22 19 17 16 15 15 16 16 17 16 17 17 16 16
71 72 73 73 73 72 71 69 67 65 64 62 61 60 59 57 56 54 52 51 49 47 44 41 38 35 33 30 25 20 16 14 14 16 17 17 19 17 17 19 18 16 15

GEFSGL_500_meanwind_012.txt.gz
Wind_Speed
49 51 51 53 52 50 49 47 45 44 45 46 47 47 46 44 44 44 45 45 44 43 42 40 40 40 41 41 41 41 42 43 43 42 40 40 42 43 44 45 45 46 48
48 51 53 53 52 51 50 48 45 44 44 45 46 47 45 44 44 43 43 43 42 40 39 39 39 38 39 39 39 39 40 41 42 41 40 39 39 40 41 41 41 41 41
45 48 52 53 53 53 50 45 44 44 45 46 46 45 44 43 43 42 41 40 39 39 39 39 38 38 38 38 38 38 38 39 41 42 40 38 38 39 39 38 38 38 38
39 41 46 51 52 49 43 42 44 44 43 42 42 43 42 40 39 38 39 39 39 39 40 40 40 39 39 38 38 38 38 39 40 41 40 38 37 38 39 38 37 37 36
31 33 37 42 45 42 41 42 42 39 36 36 39 41 40 38 37 37 38 39 40 40 40 41 41 40 40 40 39 40 40 40 41 42 41 40 38 38 39 38 38 36 36
24 25 28 33 38 40 41 39 35 32 32 36 39 39 38 37 35 36 37 38 38 38 40 41 42 42 42 42 41 41 41 42 43 43 43 42 40 40 39 38 37 35 34
21 19 20 24 28 31 32 31 28 29 32 34 34 33 33 34 34 34 35 36 36 37 39 40 42 44 44 44 44 43 43 44 45 45 45 44 43 42 41 39 37 35 33
21 18 17 18 21 23 23 24 25 27 29 29 28 28 29 30 32 32 33 35 36 38 39 41 43 44 45 45 44 44 45 45 46 47 47 47 47 45 44 41 38 36 33
22 20 18 19 20 21 22 24 25 27 27 26 26 25 25 27 29 31 33 36 38 39 40 41 42 43 44 44 45 46 47 47 47 48 49 49 49 49 47 44 41 37 34
21 21 21 22 22 23 24 25 26 27 27 26 25 24 24 25 27 30 34 38 40 42 43 43 44 44 45 45 46 47 47 48 49 49 50 50 51 51 50 47 44 40 36
22 23 24 25 25 25 26 27 28 29 29 28 27 26 26 26 27 30 33 37 41 44 45 46 46 46 47 47 47 48 49 50 50 51 51 51 52 52 52 51 47 43 38
23 25 27 28 29 29 30 30 31 32 32 32 32 31 30 30 31 32 34 38 42 44 46 47 48 48 48 48 49 49 50 50 51 51 52 52 52 53 53 53 51 46 42
28 29 30 32 33 33 34 34 35 35 36 37 37 37 37 37 37 37 38 40 42 44 46 48 49 49 49 49 49 49 50 50 51 51 52 52 53 53 53 53 52 49 45
30 31 32 33 35 37 38 38 39 39 40 41 42 42 42 42 42 42 43 43 44 44 45 46 47 48 49 49 49 50 50 51 51 52 52 52 53 53 53 53 53 51 48
29 30 31 32 34 36 39 42 43 44 45 46 47 48 48 48 48 48 47 47 46 46 46 46 47 48 49 50 50 51 51 52 52 53 53 53 53 53 53 53 53 53 51
31 31 31 32 34 36 39 42 45 47 49 51 52 52 53 53 53 53 52 50 49 49 49 49 50 50 51 51 52 53 54 54 54 54 54 54 54 54 54 54 55 55 54
31 32 33 33 35 37 39 42 45 48 50 52 54 55 55 55 55 55 55 53 53 53 53 53 54 54 54 55 55 55 56 56 56 56 56 56 56 56 56 56 56 57 57
32 32 33 34 36 38 40 43 45 48 51 53 55 56 57 57 57 58 58 57 58 58 58 58 59 59 59 59 59 59 59 59 59 59 59 59 58 58 58 58 59 60 60
37 37 38 39 41 42 44 46 48 51 53 55 57 59 60 61 62 63 63 63 63 64 64 64 64 64 64 64 64 63 63 63 63 63 62 62 62 61 61 61 62 63 64
43 44 45 47 48 49 51 53 55 57 59 61 63 65 66 67 68 69 70 71 71 71 71 71 71 71 70 70 69 68 68 68 68 68 67 67 67 67 67 67 67 68 68
51 53 55 56 58 59 61 63 64 66 68 69 71 72 74 75 76 76 77 78 78 79 79 79 78 78 78 77 76 76 75 75 75 74 73 73 73 72 72 71 71 71 71
60 61 63 64 66 67 68 70 71 72 73 75 76 77 78 79 80 80 81 81 82 82 82 83 83 83 83 83 82 81 80 79 79 78 77 76 75 73 72 71 70 69 69
65 65 65 65 65 65 66 66 66 66 67 67 68 68 69 70 71 72 73 74 75 76 76 77 77 78 78 78 78 76 75 73 72 70 68 66 65 63 61 59 58 57 57
60 58 57 55 54 53 52 51 50 50 50 50 50 50 51 52 53 54 56 58 59 61 63 64 65 66 66 66 66 64 61 59 56 54 52 50 48 46 44 43 42 41 39
48 45 43 41 40 38 37 36 35 34 34 34 34 34 34 35 35 36 37 38 40 41 43 45 46 48 49 50 49 48 45 42 40 37 35 33 32 30 28 27 25 24 23
38 37 35 34 33 32 31 31 30 30 30 29 29 28 27 27 26 26 25 26 26 26 27 27 29 30 31 31 32 32 32 31 30 28 25 23 21 20 19 18 17 17 16

GEFSGL_500_meanwind_018.txt.gz
Wind_Speed
57 52 46 44 44 46 47 46 46 47 49 51 50 50 51 50 48 46 44 43 43 44 46 49 50 51 52 52 54 56 57 58 59 59 59 58 57 55 53 52 51 51 50
43 37 34 33 34 37 40 41 42 44 46 47 48 48 49 49 45 43 42 42 42 44 46 48 49 49 50 50 51 52 54 56 57 57 56 55 54 52 50 50 49 48 47
35 31 29 28 28 30 32 34 36 39 42 44 44 44 46 46 43 41 42 43 43 44 45 46 47 48 48 48 49 50 52 54 54 54 53 52 51 49 48 48 47 46 45
32 30 28 27 27 26 26 26 28 33 36 40 40 41 41 40 39 40 42 43 44 44 44 44 44 44 45 46 47 48 49 50 50 50 49 49 48 47 46 45 45 45 44
32 30 28 27 26 25 23 23 23 25 29 32 35 37 38 38 38 40 42 44 44 43 42 40 40 40 41 42 43 44 46 46 46 46 45 44 44 44 43 43 44 44 43
32 30 28 27 26 24 22 22 22 23 24 26 29 31 33 35 36 38 41 42 42 40 39 38 38 38 38 38 39 41 42 43 43 44 43 43 42 41 40 41 41 42 42
32 31 28 27 26 24 22 21 20 21 22 24 25 28 30 32 34 36 38 40 39 39 38 38 38 36 35 36 37 39 40 42 43 44 42 42 41 40 40 40 40 41 42
33 31 29 28 26 24 23 21 20 20 21 23 24 26 28 30 33 35 36 37 38 38 37 37 36 35 34 35 36 38 40 42 43 44 44 43 42 42 42 41 41 42 43
34 32 30 29 28 26 24 22 21 21 22 23 24 25 27 30 32 34 35 35 36 36 35 34 34 34 33 34 35 37 40 42 43 44 44 44 43 43 43 43 43 43 44
36 34 32 31 30 29 27 25 24 24 24 24 25 26 27 29 31 33 34 34 35 35 34 33 33 34 34 34 35 36 38 40 41 43 44 44 44 45 45 45 45 46 46
38 36 34 33 32 31 30 29 28 28 28 28 28 28 29 30 31 33 34 35 35 35 34 32 33 33 34 34 35 36 38 39 40 42 43 44 45 46 46 47 47 47 48
39 38 36 34 33 33 32 32 32 32 32 32 32 33 33 33 34 35 35 36 36 35 35 34 34 34 34 34 35 36 37 39 41 42 44 45 46 47 48 48 49 49 50
40 38 37 36 35 34 34 34 33 34 35 36 37 37 38 38 38 39 39 39 40 39 39 39 38 38 37 37 36 36 36 38 40 43 45 47 48 49 50 51 51 51 51
42 40 38 37 36 36 35 35 36 36 37 38 39 41 42 43 44 44 44 44 45 45 45 45 45 43 43 42 41 40 39 39 40 42 44 47 49 51 52 53 53 53 53
45 43 41 40 39 38 38 38 38 38 39 40 41 43 45 47 48 50 50 50 51 51 52 52 52 51 50 49 48 47 46 45 45 45 46 48 50 51 53 54 54 54 54
48 47 46 45 44 43 43 43 42 42 42 43 44 45 47 49 51 53 55 56 56 57 57 58 58 58 57 56 55 54 53 52 51 50 50 50 51 52 53 54 55 55 54
53 52 51 51 50 50 50 49 49 49 49 49 49 50 51 52 54 55 58 59 60 61 62 62 63 63 63 62 62 61 60 58 57 56 55 55 54 54 54 54 54 54 54
57 56 56 55 55 55 56 56 57 57 57 57 58 58 58 58 59 60 61 62 63 64 65 66 66 67 67 67 66 66 65 64 63 61 60 59 58 57 56 56 55 55 54
54 53 52 52 52 52 53 54 56 57 59 60 62 64 65 66 66 66 67 67 68 68 69 69 70 70 70 70 69 69 68 67 66 65 64 63 62 61 60 59 58 57 56
47 46 45 43 42 42 42 42 43 45 47 50 54 57 61 64 67 69 71 73 73 74 74 74 74 74 74 74 73 72 71 70 69 69 67 66 65 64 63 61 60 59 58
42 41 39 38 37 36 35 34 33 33 33 34 37 39 43 47 52 57 62 67 71 74 76 78 79 79 79 78 78 77 75 74 73 72 71 70 68 67 65 64 63 61 59
42 41 40 39 38 37 36 35 33 32 31 30 30 30 30 32 34 38 42 47 52 58 64 69 73 77 79 81 81 81 80 79 78 77 76 74 72 70 69 67 65 64 62
44 44 43 42 41 39 38 36 35 34 33 32 31 30 29 28 28 28 29 32 35 39 44 49 54 59 65 70 74 77 78 80 80 80 79 78 76 75 73 71 69 67 65
47 46 45 44 42 41 40 39 38 36 35 34 33 32 31 30 29 27 26 26 26 28 30 33 36 40 45 50 55 60 65 69 72 74 76 76 76 76 74 73 72 71 69
49 49 48 47 45 44 43 42 41 39 37 35 34 33 32 31 30 29 27 25 24 23 23 23 25 26 29 32 36 40 45 49 53 57 61 64 65 66 67 67 67 68 67
52 52 51 51 50 49 48 46 43 41 38 35 33 31 30 29 29 29 28 26 23 21 19 18 18 17 18 19 21 24 27 30 33 36 39 41 44 46 48 50 52 54 55

GEFSGL_500_meanwind_024.txt.gz
Wind_Speed
31 31 32 34 36 37 37 36 35 35 34 33 33 35 39 45 49 49 50 50 49 49 49 48 49 50 53 55 58 60 61 62 62 63 64 63 63 63 62 62 61 61 61
29 30 31 33 34 35 35 34 33 32 31 30 29 31 36 40 46 49 50 51 50 49 49 48 49 50 51 53 54 56 58 60 60 61 62 63 63 63 62 62 61 61 60
30 31 33 34 34 34 34 33 32 31 29 27 26 27 31 36 41 45 48 51 51 51 50 50 51 52 53 53 54 55 57 58 58 59 60 61 62 61 61 61 61 61 60
32 34 34 35 35 34 33 32 31 30 28 25 24 25 27 31 36 40 44 47 50 52 51 50 49 49 51 52 53 53 54 54 54 55 56 57 58 59 59 60 60 61 61
34 36 36 36 36 35 34 32 31 29 27 25 24 24 25 28 31 34 39 42 45 46 47 47 48 48 48 49 50 50 50 50 50 51 53 54 56 57 58 58 59 59 61
37 38 38 38 37 36 34 32 31 30 28 26 24 24 24 26 28 31 34 37 39 41 42 44 46 46 46 46 47 48 47 48 49 50 52 54 55 56 57 58 58 58 59
40 40 40 39 39 37 35 33 31 30 29 27 25 25 24 25 27 29 31 34 37 39 41 42 43 45 46 46 46 46 47 47 48 49 51 53 54 55 56 57 57 58 57
44 43 43 42 40 38 36 34 32 31 30 29 27 26 26 26 26 28 30 34 37 39 40 40 41 43 45 46 45 45 46 46 47 48 50 51 52 53 55 55 56 57 56
47 46 45 43 42 40 38 35 33 32 31 30 30 29 28 28 29 29 30 33 36 39 40 40 41 42 44 44 45 45 45 46 46 47 48 49 50 51 52 54 54 54 53
50 49 48 46 44 42 39 36 34 33 32 32 32 32 32 31 32 32 32 33 35 37 40 41 42 43 43 44 44 44 44 45 46 47 47 48 48 48 49 50 50 50 50
53 52 50 48 46 44 42 39 36 35 34 33 33 33 34 35 35 35 35 35 36 37 39 41 42 43 44 43 43 43 44 44 45 46 46 46 45 45 46 46 47 47 47
52 51 50 48 47 45 44 42 40 38 37 36 35 35 35 37 38 39 39 39 38 39 39 41 42 43 44 44 43 43 43 43 43 44 44 44 43 43 44 44 44 44 45
49 48 47 46 45 44 43 42 42 42 41 39 38 38 38 38 40 41 42 43 43 42 42 42 43 44 45 45 44 43 43 43 43 43 43 44 43 43 43 44 43 44 44
47 46 46 45 44 43 42 41 41 42 43 42 42 42 42 42 42 43 44 45 46 46 46 46 45 45 45 45 45 45 44 43 43 43 43 43 43 43 43 43 44 44 44
47 46 45 44 43 41 40 39 38 39 40 42 43 44 45 46 47 47 46 47 49 50 50 50 50 50 49 48 48 47 46 45 44 43 43 43 43 43 43 44 44 44 44
47 47 46 44 42 40 38 37 36 35 34 36 38 41 44 47 49 51 51 51 51 52 53 53 54 54 54 53 52 51 50 48 47 45 44 43 43 43 43 43 43 43 43
49 49 48 46 44 41 39 36 34 33 32 31 32 34 37 41 45 50 53 54 55 55 55 56 56 57 57 57 57 56 55 53 52 50 49 47 46 45 45 44 43 43 42
51 51 50 48 46 43 40 37 34 32 30 30 29 29 30 32 35 40 46 51 55 58 59 59 60 60 60 60 61 61 60 59 58 56 55 53 52 50 49 48 47 46 45
53 52 51 49 47 45 42 39 36 34 32 30 29 28 28 29 29 31 34 40 46 53 58 61 63 64 64 64 64 64 64 64 63 62 61 60 58 57 55 54 52 51 50
54 53 53 51 49 46 44 41 38 36 34 32 31 30 29 29 28 28 29 31 34 40 46 53 59 64 66 68 68 68 67 67 67 67 66 65 64 63 62 60 59 58 56
55 53 52 51 50 48 45 42 40 37 35 34 33 32 30 29 29 29 28 28 29 31 35 40 47 54 61 66 69 71 71 71 71 70 70 70 69 68 67 65 64 63 62
56 55 55 55 53 51 47 44 41 38 36 34 32 31 30 29 28 28 28 27 28 28 29 31 35 41 47 54 62 67 71 73 74 73 73 72 72 71 70 69 68 67 65
59 59 59 58 55 53 49 45 42 38 35 32 29 27 26 25 25 25 25 26 26 27 28 28 30 32 36 41 47 54 61 67 71 74 75 75 74 74 73 72 71 69 68
61 60 60 59 58 55 52 48 43 39 34 28 24 21 19 19 20 21 22 23 24 25 26 26 26 27 28 30 34 39 46 53 60 66 71 73 74 75 74 73 72 70 69
60 60 60 60 60 59 57 52 47 42 35 28 22 16 14 14 14 16 17 19 21 22 23 22 21 20 20 21 23 26 30 36 43 50 57 64 68 71 72 72 72 70 69
58 58 59 60 61 62 61 59 55 48 41 33 26 19 15 13 13 13 13 15 16 16 16 15 13 11 10 10 11 13 16 21 26 32 39 46 53 59 64 66 68 68 67

GEFSGL_500_meanwind_030.txt.gz
Wind_Speed
40 38 36 34 33 32 31 31 30 30 31 32 33 34 35 36 37 37 38 38 41 44 49 53 55 55 56 57 60 63 66 70 74 76 75 76 76 76 76 76 76 74 73
42 40 39 37 36 35 35 34 34 34 34 35 35 36 37 37 37 37 36 36 36 36 39 44 48 51 53 55 55 56 57 58 62 66 69 71 72 75 76 76 77 77 76
45 44 43 42 41 41 40 39 39 38 38 38 38 38 38 38 37 36 34 34 34 35 37 42 46 48 50 52 53 54 54 53 54 57 60 64 66 69 72 74 75 75 76
50 48 47 47 46 45 45 44 43 42 41 41 40 40 39 38 37 35 34 33 33 35 37 40 44 46 49 49 49 51 52 52 52 53 55 57 60 62 65 68 70 71 72
52 51 50 50 49 48 48 47 47 46 44 43 42 41 40 39 38 36 34 33 33 34 37 41 44 47 50 49 47 47 50 51 51 51 52 53 54 56 58 61 63 65 66
53 52 51 50 49 49 48 48 47 47 46 45 44 42 41 40 39 37 35 34 34 34 35 39 42 47 49 49 48 47 47 49 50 51 51 52 52 53 55 57 58 60 61
49 49 48 48 47 47 46 46 45 45 45 44 44 43 42 41 40 39 36 35 35 35 35 36 39 42 46 47 48 48 47 47 49 49 51 52 52 52 53 54 55 56 57
49 49 49 48 47 46 45 44 44 43 42 42 42 42 42 42 41 40 38 36 36 36 37 36 37 39 42 44 45 47 47 47 47 49 49 50 52 53 53 53 53 53 54
50 49 49 48 47 46 45 43 42 40 40 39 39 40 41 42 42 42 40 38 38 38 38 38 39 39 41 43 44 46 47 48 48 49 50 50 50 50 50 51 52 51 52
51 51 50 49 48 47 45 43 40 38 37 36 36 37 39 41 43 43 42 40 39 39 39 39 40 40 41 42 44 45 47 48 49 49 51 51 50 49 49 50 51 51 51
53 53 52 51 50 48 46 43 41 38 35 33 33 34 36 39 42 43 44 42 41 41 41 41 41 41 42 43 44 46 48 49 50 50 51 51 51 50 50 50 50 50 50
55 55 54 53 51 49 47 45 42 39 36 33 31 31 32 35 39 43 44 44 43 43 43 43 43 43 43 44 45 46 48 49 50 51 51 51 51 51 51 51 50 50 50
56 55 54 53 52 51 49 46 43 40 37 33 31 29 29 31 34 39 43 45 45 44 45 46 45 45 44 45 45 46 47 49 49 50 50 51 51 51 51 51 50 50 50
57 56 55 54 52 51 50 48 45 41 38 34 31 29 27 27 29 33 38 42 45 45 46 47 47 47 47 46 46 47 48 48 49 49 49 50 51 51 51 50 50 50 50
57 56 56 55 54 53 51 50 47 43 40 35 31 28 26 25 26 28 31 36 41 45 47 47 48 48 48 48 48 47 48 48 49 49 49 49 50 50 50 50 49 49 49
57 56 57 57 56 56 54 51 48 45 40 36 32 29 26 24 23 24 25 29 34 40 44 47 48 49 50 50 50 49 49 49 49 49 50 49 49 49 49 48 48 47 47
57 57 59 59 59 59 58 55 48 42 38 35 31 28 26 24 23 22 22 23 27 31 37 43 47 49 51 51 52 52 51 51 50 50 50 50 49 49 48 48 47 46 45
57 57 59 60 61 62 62 59 52 43 35 30 27 25 24 23 22 21 21 20 21 24 28 34 40 46 50 52 53 53 53 53 53 52 51 51 51 50 49 48 47 46 45
56 57 59 61 63 64 64 62 55 46 37 28 23 21 20 20 20 20 20 19 19 20 22 26 31 38 44 50 53 54 55 55 55 55 54 53 52 52 51 49 48 47 46
57 57 59 62 64 65 65 63 59 51 41 30 22 17 15 15 16 17 18 18 19 19 20 21 25 29 35 42 49 53 56 57 57 57 57 56 55 54 53 52 51 49 47
57 58 59 61 63 65 66 65 62 57 48 37 28 20 14 11 11 12 14 15 16 18 19 21 22 24 28 34 41 48 53 57 59 60 60 60 59 58 56 55 53 52 50
59 59 60 60 61 63 66 66 64 62 56 47 37 28 21 14 10 8 9 11 13 15 17 19 21 23 25 29 33 39 46 52 57 60 61 62 62 61 60 59 57 56 54
59 59 60 59 59 61 63 64 64 63 61 58 51 42 33 24 17 12 8 8 10 13 15 17 19 21 23 25 28 32 38 44 51 57 60 62 64 64 64 63 61 60 58
59 59 59 59 59 59 60 61 63 63 62 60 57 54 49 42 34 27 20 15 11 10 10 12 13 15 17 19 22 25 30 35 41 48 55 60 63 65 66 66 65 64 62
57 58 58 59 59 59 59 59 59 60 60 59 58 57 54 52 48 44 39 34 29 25 20 16 12 9 7 8 11 14 19 24 30 37 44 51 57 62 66 67 68 67 66
56 56 57 58 59 59 59 59 58 57 57 57 56 56 55 53 52 50 47 44 41 38 35 31 28 23 19 13 8 4 5 11 17 24 31 39 47 54 60 64 67 68 68